Flag for Ethiopia Weather past 2 weeks in Addis Ababa, Ethiopia

Now
59 °F

Passing clouds.


Feels Like: 59 °F
Forecast: 39 / 81 °F
Wind: 5 mph from West

Location: Addis Ababa Airport

Current Time: Apr 21, 2015 at 4:33:20 AM

Latest Report: Apr 21, 2015 at 4:00 AM


Visibility: N/A

Pressure: 30.30 "Hg

Humidity: 39%

Dew point: 34 °F

Location of Addis AbabaLocation

Historic Weather in Addis Ababa — Graph

°F

Addis Ababa temperature yesterday

Maximum temperature yesterday: 81 °F (at 3:00 PM)
Minimum temperature yesterday: 57 °F (at 6:00 AM)
Average temperature yesterday: 69 °F

Past Weeks' High & Low Weather Summary

 TemperatureHumidityPressure
High81 °F (Apr 7, 3:00 PM)82% (Apr 14, 4:00 AM)30.48 "Hg (Apr 14, 4:00 AM)
Low52 °F (Apr 18, 6:00 AM)17% (Apr 17, 1:00 PM)30.21 "Hg (Apr 7, 6:00 PM)
Average68 °F41%30.33 "Hg
* Reported Apr 7 3:00 PM — Apr 21 2:00 AM, Addis Ababa, Weather by CustomWeather, © 2015

Note: Actual official high and low records may vary slightly from our data, if they occured in-between our weather recording intervals... More about our weather records

Advertising

Addis Ababa weather history for previous 24 hours

 ConditionsComfort  
Time TempWeatherWind HumidityBarometerVisibility
2:00 AM
Tue, Apr 21
61 °FPassing clouds.7 mph31%30.30 "HgN/A
1:00 AM61 °FPassing clouds.8 mph34%30.33 "HgN/A
12:00 AM63 °FPassing clouds.7 mph32%30.33 "HgN/A
11:00 PM
Mon, Apr 20
64 °FPassing clouds.9 mph30%30.36 "HgN/A
9:00 PM66 °FPassing clouds.9 mph28%30.33 "HgN/A
8:00 PM70 °FPassing clouds.14 mph25%30.30 "HgN/A
7:00 PM72 °FPassing clouds.18 mph25%30.30 "HgN/A
6:00 PM75 °FPassing clouds.16 mph27%30.27 "HgN/A
5:00 PM77 °FPassing clouds.20 mph28%30.24 "HgN/A
4:00 PM79 °FPassing clouds.16 mph24%30.24 "HgN/A
3:00 PM81 °FScattered clouds.N/A23%30.24 "HgN/A
2:00 PM79 °FScattered clouds.5 mph23%30.27 "HgN/A
1:00 PM79 °FPleasantly warm.No wind23%30.30 "HgN/A
12:00 PM75 °FPartly sunny.No wind27%30.33 "HgN/A
6:00 AM57 °FPassing clouds.3 mph63%30.33 "HgN/A
5:00 AM59 °FPassing clouds.5 mph55%30.33 "HgN/A
4:00 AM59 °FCool.5 mph63%30.30 "HgN/A
Weather by CustomWeather, © 2015

See weather overviewHow to use our weather pages